DW7214 Weather Reports


time (UTC)temp
C
wind
direction
speed
KPH
gust
KPH
rain 1hr
cm
rain 24hr
cm
rain mn
cm
humidity
%
barometer
mb
20260502163019 12 338 1.6 3.2 0.00 0.00 0.00 77 1017.2
20260502161519 11 188 1.6 3.2 0.00 0.00 0.00 81 1017.3
20260502151521 9 162 0.0 3.2 0.00 0.00 0.00 89 1017.4
20260502123012 7 225 0.0 1.6 0.00 0.00 0.00 92 1017.1
20260502121521 7 153 0.0 3.2 0.00 0.00 0.00 91 1017.2
20260502114525 8 106 0.0 3.2 0.00 0.00 0.00 91 1017.0
20260502113025 8 134 0.0 3.2 0.00 0.00 0.00 91 1017.1
20260502111512 8 87 0.0 3.2 0.00 0.00 0.00 91 1016.7
20260502110018 8 52 0.0 3.2 0.00 0.00 0.00 91 1016.7
20260502104537 8 95 0.0 3.2 0.00 0.00 0.00 92 1016.8
20260502103023 8 326 0.0 3.2 0.00 0.00 0.00 92 1016.3
20260502101525 8 130 0.0 3.2 0.00 0.00 0.00 90 1016.7
20260502071525 10 69 0.0 3.2 0.00 0.00 0.00 86 1017.7
20260502070028 10 155 0.0 3.2 0.00 0.00 0.00 85 1017.7
20260502064531 10 175 1.6 4.8 0.00 0.00 0.00 85 1017.7
20260502063020 11 130 1.6 4.8 0.00 0.00 0.00 85 1017.7
20260502061504 11 52 0.0 3.2 0.00 0.00 0.00 85 1017.6
20260502060010 11 58 0.0 3.2 0.00 0.00 0.00 84 1017.5
20260502054514 11 52 1.6 3.2 0.00 0.00 0.00 84 1017.4
20260502053017 11 48 1.6 4.8 0.00 0.00 0.00 83 1017.2
20260502051522 11 142 0.0 3.2 0.00 0.00 0.00 83 1017.1
20260502050005 11 111 1.6 3.2 0.00 0.00 0.00 84 1017.1
20260502044509 11 57 0.0 3.2 0.00 0.00 0.00 83 1016.9
20260502043018 12 12 0.0 3.2 0.00 0.00 0.00 82 1016.9
20260502041521 12 50 0.0 3.2 0.00 0.00 0.00 81 1016.7
20260502040025 13 200 1.6 11.3 0.00 0.00 0.00 79 1016.7
20260502034508 13 115 1.6 6.4 0.00 0.00 0.00 78 1016.5
20260502033015 13 87 3.2 6.4 0.00 0.00 0.00 77 1016.2
20260502031518 14 130 6.4 12.9 0.00 0.00 0.00 76 1016.0
20260502030021 15 119 3.2 6.4 0.00 0.00 0.00 73 1015.8
20260502024525 16 62 0.0 6.4 0.00 0.00 0.00 72 1015.5
20260502023009 16 94 3.2 6.4 0.00 0.00 0.00 70 1015.4
20260502021516 17 5 0.0 3.2 0.00 0.00 0.00 69 1015.4
20260502020022 18 105 1.6 6.4 0.00 0.00 0.00 65 1015.3
20260502014523 19 73 1.6 6.4 0.00 0.00 0.00 63 1015.2
20260502013008 20 122 1.6 3.2 0.00 0.00 0.00 63 1015.0
20260502011534 20 65 3.2 9.7 0.00 0.00 0.00 62 1015.0
20260502010019 20 130 4.8 11.3 0.00 0.00 0.00 61 1015.0
20260502004522 21 146 4.8 11.3 0.00 0.00 0.00 59 1015.0
20260502003027 22 102 0.0 3.2 0.00 0.00 0.00 59 1015.0
20260502001514 22 38 1.6 11.3 0.00 0.00 0.00 57 1014.9
20260502000016 22 104 1.6 11.3 0.00 0.00 0.00 54 1014.8
20260501234524 22 108 3.2 9.7 0.00 0.00 0.00 55 1014.9
20260501233026 22 109 4.8 12.9 0.00 0.00 0.00 51 1015.0
20260501231537 22 101 1.6 11.3 0.00 0.00 0.00 51 1015.2
20260501230014 22 103 4.8 11.3 0.00 0.00 0.00 52 1015.4
20260501224518 22 132 1.6 8.0 0.00 0.00 0.00 53 1015.5
20260501223023 22 173 3.2 8.0 0.00 0.00 0.00 58 1015.7
20260501221524 22 130 3.2 11.3 0.00 0.00 0.00 58 1015.8
20260501220013 22 74 3.2 11.3 0.00 0.00 0.00 57 1015.9
20260501214518 22 78 3.2 8.0 0.00 0.00 0.00 57 1016.0
20260501213029 21 182 1.6 9.7 0.00 0.00 0.00 57 1016.1
20260501211504 21 65 1.6 8.0 0.00 0.00 0.00 56 1016.2
20260501210012 21 36 1.6 9.7 0.00 0.00 0.00 59 1016.1
20260501204516 21 84 3.2 8.0 0.00 0.00 0.00 59 1016.4
20260501203019 20 186 1.6 9.7 0.00 0.00 0.00 59 1016.7
20260501201524 20 97 6.4 11.3 0.00 0.00 0.00 62 1016.9
20260501200008 19 156 3.2 14.5 0.00 0.00 0.00 63 1017.0
20260501194517 19 19 1.6 9.7 0.00 0.00 0.00 64 1017.2
20260501193033 19 59 3.2 9.7 0.00 0.00 0.00 64 1017.3
20260501191531 18 88 1.6 9.7 0.00 0.00 0.00 65 1017.4
20260501190045 18 49 1.6 16.1 0.00 0.00 0.00 65 1017.4
20260501184520 18 216 1.6 9.7 0.00 0.00 0.00 65 1017.5
20260501183021 17 139 1.6 6.4 0.00 0.00 0.00 67 1017.6
20260501181524 17 71 3.2 8.0 0.00 0.00 0.00 69 1017.7
20260501180023 16 94 1.6 6.4 0.00 0.00 0.00 73 1017.8